www.pogodaiklimat.ru

Погода и климат >> Архив погоды >> Мадагаскар >> Тулиара


ПОГОДА в Тулиаре

  • Прогноз погоды в Тулиаре
  • Монитор погоды в Тулиаре

АРХИВ ПОГОДЫ в Тулиаре

Время (UTC), дата Ветер
(напр.,м/с)
 
Видим.   Явления Облачность Т
(С)
Тd
(С)
f
(%)
Тe
(С)
Тes
(С)
Комфортность P
(гПа)
Po
(гПа)
Тmin
(С)
Tmax
(С)
R
(мм)
R24
(мм)
S
(см)
00 14.07 В 1 30 км ясно +16.1 +14.4 90 +17 +17 1021.0 1020.1
03 14.07 В 2 35 км ясно +15.4 +12.3 82 +15 +15 1021.3 1020.4
06 14.07 ЮВ 5 40 км ясно +18.5 +12.8 69 +19 +21 1022.7 1021.8 +14.4
09 14.07 ЮВ 5 40 км ясно +25.6 +10.3 38 +26 +32 жарко 1021.8 1020.9
12 14.07 ЮВ 4 40 км ясно +29.6 +6.9 24 +28 +32 жарко 1019.1 1018.2
15 14.07 ЮВ 3 40 км ясно +26.0 +9.9 36 +27 +27 жарко 1019.9 1019.0
03 15.07 ЮВ 2 35 км ясно +16.0 +13.7 86 +16 +16 1021.3 1020.4
06 15.07 ЮВ 3 40 км ясно +20.6 +13.0 62 +23 +27 комфорт 1022.5 1021.6 +16.0
09 15.07 Ю 4 40 км ясно +26.5 +12.0 40 +28 +35 жарко 1022.1 1021.2
12 15.07 З 4 40 км ясно +26.4 +15.5 51 +29 +33 жарко 1020.0 1019.1
15 15.07 ЮЗ 1 40 км ясно +22.2 +18.8 81 +28 +28 душно 1020.9 1020.0
00 16.07 В 3 35 км ясно +17.8 +10.8 64 +18 +18 1022.7 1021.8
03 16.07 ЮВ 2 40 км ясно +16.5 +11.2 71 +17 +17 1023.7 1022.8
06 16.07 СВ 2 40 км ясно +23.4 +13.8 55 +27 +31 душно 1025.0 1024.1 +15.3
09 16.07 ЮЗ 4 40 км 1/1 600 м
[Cu Sc]
+27.5 +15.7 49 +31 +37 душно 1024.5 1023.6
12 16.07 ЮЗ 5 40 км 1/1 600 м
[Cu Sc]
+26.3 +15.8 52 +29 +32 жарко 1022.7 1021.8
15 16.07 ЮЗ 3 40 км 1/1 600 м
[Cu Sc]
+23.3 +18.2 73 +29 +29 душно 1023.2 1022.3
00 17.07 штиль 0 30 км 1/1 600 м
[Cu Sc]
+16.5 +11.0 70 +16 +16 1023.5 1022.6
03 17.07 штиль 0 35 км 1/1 600 м
[Cu Sc]
+17.5 +11.1 66 +18 +18 1023.9 1023.0
06 17.07 С 1 40 км 1/1 600 м
[Cu Sc]
+23.0 +12.2 51 +26 +31 жарко 1025.7 1024.8 +16.5
09 17.07 З 4 40 км 1/1 600 м
[Cu med, cong]
+26.2 +13.2 45 +28 +35 жарко 1024.9 1024.0
12 17.07 ЮЗ 3 40 км 1/1 600 м
[Cu Sc]
+25.5 +18.5 65 +30 +34 душно 1023.0 1022.1
15 17.07 Ю 1 40 км 6/6 600 м
[Cu Sc]
+23.6 +20.1 81 +29 +29 душно 1023.0 1022.1
00 18.07 СВ 2 30 км 1/1 600 м
[Cu Sc]
+16.0 +12.4 79 +16 +16 1022.0 1021.1
03 18.07 СВ 3 35 км 1/1 600 м
[Cu Sc]
+18.1 +12.4 69 +18 +18 1022.3 1021.4
06 18.07 СВ 3 40 км 1/1 600 м
[Cu Sc]
+23.3 +12.6 51 +26 +30 жарко 1023.3 1022.4 +15.9
09 18.07 З 3 40 км 1/1 600 м
[Cu med, cong]
+25.5 +18.5 65 +30 +39 душно 1022.3 1021.4
12 18.07 З 5 40 км 3/3 600 м
[Cu Sc]
+25.2 +18.5 66 +30 +32 душно 1020.3 1019.4
15 18.07 Ю 4 40 км 5/5 600 м
[Cu Sc]
+23.4 +19.4 78 +30 +30 очень
душно
1020.0 1019.1
00 19.07 В 2 35 км 1/1 600 м
[Cu Sc]
+15.3 +14.2 93 +15 +15 1020.1 1019.2
03 19.07 В 1 35 км 1/1 600 м
[Cu Sc]
+15.3 +13.7 90 +16 +16 1019.4 1018.5
06 19.07 ЮВ 1 40 км 1/1 600 м
[Cu Sc]
+22.0 +15.4 66 +26 +30 душно 1020.0 1019.1 +14.5
09 19.07 З 3 40 км 1/1 600 м
[Cu Sc]
+23.5 +17.1 67 +27 +36 душно 1018.7 1017.8
12 19.07 В 4 40 км 1/1 600 м
[Cu Sc]
+24.9 +18.4 67 +29 +33 душно 1017.0 1016.1
15 19.07 З 2 40 км 1/1 600 м
[Cu Sc]
+23.0 +13.2 54 +26 +26 жарко 1017.1 1016.2
03 20.07 В 3 35 км ясно +14.2 +6.6 60 +13 +13 1016.0 1015.1
06 20.07 В 2 40 км ясно +23.3 +5.9 32 +24 +28 комфорт 1016.5 1015.6 +13.7
09 20.07 СЗ 5 40 км ясно +27.8 +3.0 20 +26 +32 жарко 1014.7 1013.8
12 20.07 СЗ 4 40 км ясно +26.1 +10.8 38 +27 +30 жарко 1012.9 1012.0
15 20.07 СЗ 6 40 км 1/0
[Ci sp]
+23.9 +11.8 47 +26 +26 жарко 1013.5 1012.6

 

Местоположение метеостанции Тулиара (Мадагаскар): широта -23.38 долгота 43.73 высота над уровнем моря 8 м.

В архиве по умолчанию представлена погода в Тулиаре за последнюю неделю. Архивные данные за месяц целиком и за предыдущие месяцы, начиная с января 2011 года, Вы можете получить, выбрав интересующий диапазон дат из раскрывающегося списка и нажав кнопку "Ввод!".


*Определитесь, кто Вы:
робот инопланетянин человек

Внимание! Время в таблицах - всемирное. Для получения местного времени необходимо прибавить поправку, которая равна 3 ч.

Смотрите также архив погоды в соседних городах и на ближайших метеорологических станциях:

Погода в Моромбе (Мадагаскар) (185 км)
Погода в Раноайре (Мадагаскар) (295 км)
Погода в Мурундаве (Мадагаскар) (350 км)
Погода на Острове Европа (Реюньон) (372 км)
Погода в Толанаро (Мадагаскар) (375 км)
Погода в Фианаранцуа (Мадагаскар) (408 км)
Погода в Фарафангане (Мадагаскар) (424 км)
Погода в Манандзари (Мадагаскар) (516 км)
Погода в Анцирабе (Мадагаскар) (526 км)
Погода в Мэнтирано (Мадагаскар) (594 км)

Пояснения к столбцам:

Ветер - указаны скорость ветра в м/с - средняя за 10 мин, порывы в срок и между сроками (в фигурных скобках) и направление, откуда дует ветер: С - северный, СВ - северо-восточный, В - восточный, ЮВ - юго-восточный, Ю - южный, ЮЗ - юго-западный, З - западный, СЗ - северо-западный.
Видимость - горизонтальная дальность видимости в метрах или километрах. При видимости от 1 до 10 км при отсутствии осадков обычно наблюдается дымка, при ухудшении видимости до 1 км и менее - туман. В сухую погоду видимость может ухудшаться дымом, пылью или мглою.
Явления - указаны атмосферные явления, наблюдавшиеся в срок или в последний час перед сроком; фигурными скобками обозначены явления, наблюдавшиеся между сроками (за 1-3 часа до срока); квадратными скобками обозначены град или гололедные отложения с указанием их диаметра в мм.
Облачность - указаны через наклонную черту общая и нижняя облачность в баллах и высота нижней границы облаков в метрах; квадратными скобками обозначены формы облаков: Ci - перистые, Cs - перисто-слоистые, Cc - перисто-кучевые, Ac - высококучевые, As - высокослоистые, Sc - слоисто-кучевые, Ns - слоисто-дождевые, Cu - кучевые, Cb - кучево-дождевые. Подробнее классификацию облаков см. в Атласе облаков (PDF).
T - Температура воздуха - температура, измеренная на высоте 2 м над землей.
Td - Температура точки росы - температура, при понижении до которой содержащийся в воздухе водяной пар достигнет насыщения.
f - Относительная влажность воздуха - влажноcть воздуха, измеренная на высоте 2 м над землей.
Te - Эффективная температура - температура, которую ощущает одетый по сезону человек в тени. Характеристика душности погоды. При расчете учитывается влияние влажности воздуха и скорости ветра на теплоощущения человека.
Tes - Эффективная температура на солнце - температура, которую ощущает человек, с поправкой на солнечный нагрев. Характеристика знойности погоды. Зависит от высоты солнца над горизонтом, облачности и скорости ветра. Ночью, в пасмурную погоду, а также при ветре 12 м/с и более поправка равна нулю.
P - Атмосферное давление - приведенное к уровню моря атмосферное давление.
Po - Атмосферное давление - измеренное на уровне метеостанции атмосферное давление.
Tmin - Минимальная температура - минимум температуры воздуха на высоте 2 м над землей.
Tmax - Максимальная температура - максимум температуры воздуха на высоте 2 м над землей.
R - Количество осадков - Количество выпавших осадков за период времени, мм. При наведении курсора мыши на число - период времени, за который выпало указанное количество осадков.
R24 - Количество осадков - Количество выпавших осадков за 24 часа, мм.
S - Снежный покров - Высота снежного покрова, см. При наведении курсора мыши на число - состояние снежного покрова и степень покрытия местности в баллах.